TimeEST,TemperatureF,Dew PointF,Humidity,Sea Level PressureIn,VisibilityMPH,Wind Direction,Wind SpeedMPH,Gust SpeedMPH,PrecipitationIn,Events,Conditions,WindDirDegrees,DateUTC
12:55 AM,32.0,28.9,88,29.68,3.0,ENE,3.5,-,N/A,,Overcast,60,2012-12-10 05:55:00
1:50 AM,32.0,28.4,87,29.64,4.0,ENE,4.6,-,0.00,Rain,Light Freezing Rain,60,2012-12-10 06:50:00
1:55 AM,32.0,28.9,88,29.67,4.0,ENE,3.5,-,0.00,Rain,Light Freezing Rain,70,2012-12-10 06:55:00
2:10 AM,32.0,30.2,93,29.64,2.0,Calm,Calm,-,0.01,Rain,Light Freezing Rain,0,2012-12-10 07:10:00
2:25 AM,32.0,30.2,93,29.64,1.8,East,3.5,-,0.01,Rain,Light Freezing Rain,80,2012-12-10 07:25:00
2:34 AM,32.0,30.2,93,29.63,2.5,NE,4.6,-,0.01,Rain,Light Freezing Rain,50,2012-12-10 07:34:00
2:42 AM,32.0,30.2,93,29.64,3.0,Calm,Calm,-,0.01,Rain,Light Freezing Rain,0,2012-12-10 07:42:00
2:55 AM,32.0,30.0,92,29.66,3.0,North,3.5,-,0.01,Rain,Light Freezing Rain,10,2012-12-10 07:55:00
3:07 AM,32.0,30.2,93,29.64,3.0,North,4.6,-,0.01,Snow,Light Snow,10,2012-12-10 08:07:00
3:26 AM,32.0,30.2,93,29.64,2.5,North,4.6,-,0.01,Snow,Light Snow,10,2012-12-10 08:26:00
3:35 AM,32.0,30.2,93,29.64,4.0,NNE,4.6,-,N/A,Snow,Light Snow,30,2012-12-10 08:35:00
3:55 AM,32.0,30.0,92,29.66,8.0,Calm,Calm,-,0.01,,Overcast,0,2012-12-10 08:55:00
4:51 AM,32.0,30.2,93,29.63,9.0,Calm,Calm,-,N/A,,Overcast,0,2012-12-10 09:51:00
4:55 AM,32.0,30.0,92,29.65,8.0,Calm,Calm,-,N/A,,Overcast,0,2012-12-10 09:55:00
5:55 AM,33.1,28.9,85,29.67,6.0,Calm,Calm,-,0.00,Snow,Light Snow,0,2012-12-10 10:55:00
6:42 AM,33.8,30.2,87,29.65,8.0,NNW,5.8,-,0.00,Snow,Light Snow,330,2012-12-10 11:42:00
6:53 AM,33.8,30.2,87,29.65,8.0,NNW,5.8,-,0.00,,Overcast,340,2012-12-10 11:53:00
6:55 AM,33.1,30.0,89,29.68,7.0,North,5.8,-,0.00,,Overcast,350,2012-12-10 11:55:00
7:11 AM,33.8,30.2,87,29.66,5.0,NNW,5.8,-,0.00,Snow,Light Snow,330,2012-12-10 12:11:00
7:24 AM,33.8,30.2,87,29.66,9.0,North,5.8,-,0.00,Snow,Light Snow,360,2012-12-10 12:24:00
7:55 AM,33.1,30.0,89,29.70,9.0,North,3.5,-,0.00,,Overcast,350,2012-12-10 12:55:00
8:55 AM,33.1,30.0,89,29.71,10.0,Calm,Calm,-,N/A,,Overcast,0,2012-12-10 13:55:00
9:55 AM,34.0,30.0,85,29.73,9.0,North,4.6,-,0.00,Snow,Light Snow,360,2012-12-10 14:55:00
10:55 AM,34.0,28.0,79,29.75,9.0,North,10.4,-,0.00,Snow,Light Snow,360,2012-12-10 15:55:00
11:45 AM,33.8,28.4,81,29.74,9.0,North,10.4,-,0.00,Snow,Light Snow,360,2012-12-10 16:45:00
11:55 AM,34.0,28.0,79,29.76,9.0,North,5.8,-,0.00,Snow,Light Snow,360,2012-12-10 16:55:00
12:50 PM,35.6,28.4,75,29.73,9.0,NNW,8.1,-,0.00,Snow,Light Snow,330,2012-12-10 17:50:00
12:55 PM,35.1,28.0,76,29.75,9.0,NNW,9.2,-,0.00,Snow,Light Snow,340,2012-12-10 17:55:00
1:18 PM,35.6,28.4,75,29.74,9.0,North,5.8,-,0.00,Snow,Light Snow,350,2012-12-10 18:18:00
1:36 PM,35.6,26.6,70,29.73,9.0,North,9.2,-,0.00,Snow,Light Snow,350,2012-12-10 18:36:00
1:55 PM,35.1,27.0,72,29.75,9.0,North,8.1,-,0.00,Snow,Light Snow,350,2012-12-10 18:55:00
2:55 PM,35.1,25.0,67,29.77,10.0,North,9.2,-,0.00,,Overcast,350,2012-12-10 19:55:00
3:55 PM,34.0,24.1,67,29.78,10.0,North,6.9,-,N/A,,Overcast,360,2012-12-10 20:55:00
4:55 PM,34.0,25.0,70,29.80,10.0,North,6.9,-,N/A,,Overcast,360,2012-12-10 21:55:00
5:55 PM,34.0,24.1,67,29.83,10.0,North,6.9,-,N/A,,Overcast,350,2012-12-10 22:55:00
6:55 PM,33.1,23.0,66,29.85,10.0,North,6.9,-,N/A,,Overcast,360,2012-12-10 23:55:00
7:55 PM,32.0,23.0,69,29.85,10.0,NE,5.8,-,N/A,,Overcast,50,2012-12-11 00:55:00
8:55 PM,30.9,21.9,69,29.88,10.0,North,5.8,-,N/A,,Scattered Clouds,10,2012-12-11 01:55:00
9:55 PM,28.0,21.9,78,29.91,10.0,Calm,Calm,-,N/A,,Partly Cloudy,0,2012-12-11 02:55:00
10:55 PM,27.0,21.0,78,29.90,10.0,Calm,Calm,-,N/A,,Clear,0,2012-12-11 03:55:00
11:55 PM,24.1,19.9,84,29.93,10.0,Calm,Calm,-,N/A,,Partly Cloudy,0,2012-12-11 04:55:00